DW5222 Weather Reports


time (UTC)temp
C
wind
direction
speed
KPH
gust
KPH
rain 1hr
cm
rain 24hr
cm
rain mn
cm
humidity
%
barometer
mb
20200407042205 3 279 0.0 0.0 0.00 0.00 0.00 81 1028.5
20200407041705 3 279 0.0 0.0 0.00 0.00 0.00 80 1028.5
20200407041205 3 279 0.0 0.0 0.00 0.00 0.00 80 1028.4
20200407040705 3 279 0.0 0.0 0.00 0.00 0.00 80 1028.3
20200407040204 3 279 0.0 0.0 0.00 0.00 0.00 80 1028.3
20200407035704 3 279 0.0 0.0 0.00 0.00 0.00 79 1028.2
20200407035205 3 279 0.0 0.0 0.00 0.00 0.00 79 1028.2
20200407034705 3 279 0.0 0.0 0.00 0.00 0.00 78 1028.2
20200407034205 3 279 0.0 0.0 0.00 0.00 0.00 78 1028.1
20200407033705 4 279 0.0 0.0 0.00 0.00 0.00 78 1028.1
20200407033205 4 279 0.0 0.0 0.00 0.00 0.00 77 1028.1
20200407032705 4 279 0.0 0.0 0.00 0.00 0.00 77 1028.0
20200407032205 4 279 0.0 0.0 0.00 0.00 0.00 77 1028.0
20200407031705 4 279 0.0 0.0 0.00 0.00 0.00 76 1028.0
20200407031205 5 279 0.0 0.0 0.00 0.00 0.00 76 1028.0
20200407030705 5 279 0.0 0.0 0.00 0.00 0.00 77 1028.0
20200407030205 4 279 0.0 0.0 0.00 0.00 0.00 77 1027.9
20200407025705 4 279 0.0 0.0 0.00 0.00 0.00 77 1027.9
20200407025205 4 279 0.0 0.0 0.00 0.00 0.00 77 1027.9
20200407024705 4 282 0.0 0.0 0.00 0.00 0.00 77 1027.8
20200407024205 4 282 0.0 0.0 0.00 0.00 0.00 77 1027.8
20200407023705 4 282 0.0 0.0 0.00 0.00 0.00 77 1027.8
20200407023205 4 286 0.0 0.0 0.00 0.00 0.00 77 1027.8
20200407022706 4 286 0.0 0.0 0.00 0.00 0.00 77 1027.7
20200407022205 4 286 0.0 0.0 0.00 0.00 0.00 77 1027.7
20200407021705 4 286 0.0 0.0 0.00 0.00 0.00 76 1027.7
20200407021204 4 286 0.0 0.0 0.00 0.00 0.00 76 1027.7
20200407020727 4 286 0.0 0.0 0.00 0.00 0.00 77 1027.6
20200407020205 4 286 0.0 0.0 0.00 0.00 0.00 77 1027.7
20200407015705 4 286 0.0 0.0 0.00 0.00 0.00 77 1027.6
20200407015205 4 286 0.0 0.0 0.00 0.00 0.00 77 1027.6
20200407014705 4 286 0.0 0.0 0.00 0.00 0.00 77 1027.5
20200407014206 4 286 0.0 0.0 0.00 0.00 0.00 76 1027.5
20200407013705 4 286 0.0 0.0 0.00 0.00 0.00 76 1027.5
20200407013205 5 286 0.0 0.0 0.00 0.00 0.00 76 1027.5
20200407012705 5 286 0.0 0.0 0.00 0.00 0.00 75 1027.4
20200407012204 5 286 0.0 0.0 0.00 0.00 0.00 75 1027.3
20200407011705 5 286 0.0 0.0 0.00 0.00 0.00 75 1027.3
20200407011205 5 286 0.0 0.0 0.00 0.00 0.00 75 1027.1
20200407010704 5 286 0.0 0.0 0.00 0.00 0.00 74 1027.1
20200407010205 5 286 0.0 0.0 0.00 0.00 0.00 74 1027.1
20200407005705 5 286 0.0 0.0 0.00 0.00 0.00 74 1027.1
20200407005205 5 286 0.0 0.0 0.00 0.00 0.00 74 1027.1
20200407004706 5 286 0.0 0.0 0.00 0.00 0.00 74 1027.1
20200407004205 5 286 0.0 0.0 0.00 0.00 0.00 74 1027.1
20200407003705 5 286 0.0 0.0 0.00 0.00 0.00 74 1027.1
20200407003205 5 286 0.0 0.0 0.00 0.00 0.00 73 1027.0
20200407002704 5 286 0.0 0.0 0.00 0.00 0.00 73 1027.1
20200407002205 6 286 0.0 0.0 0.00 0.00 0.00 72 1027.1
20200407001705 6 286 0.0 0.0 0.00 0.00 0.00 71 1027.0
20200407000705 6 284 0.0 0.0 0.00 0.00 0.00 71 1027.0
20200407000205 6 0 0.0 0.0 0.00 0.00 0.00 71 1026.9
20200406235205 6 0 0.0 0.0 0.00 0.00 0.00 70 1026.9
20200406234705 6 283 0.0 0.0 0.00 0.00 0.00 69 1026.8
20200406233704 7 0 0.0 0.0 0.00 0.00 0.00 68 1026.7
20200406233205 7 286 0.0 0.0 0.00 0.00 0.00 68 1026.7
20200406225205 7 0 0.0 0.0 0.00 0.00 0.00 67 1026.3
20200406224705 7 284 0.0 0.0 0.00 0.00 0.00 67 1026.3
20200406224205 7 285 0.0 0.0 0.00 0.00 0.00 66 1026.2
20200406223705 7 286 0.0 0.0 0.00 0.00 0.00 66 1026.2
20200406223205 7 286 0.0 0.0 0.00 0.00 0.00 66 1026.1
20200406222705 7 295 0.0 0.0 0.00 0.00 0.00 66 1026.1
20200406222205 7 294 0.0 0.0 0.00 0.00 0.00 65 1026.0
20200406221705 7 0 0.0 0.0 0.00 0.00 0.00 65 1026.0
20200406221205 8 295 0.0 0.0 0.00 0.00 0.00 64 1025.9
20200406220706 8 0 0.0 0.0 0.00 0.00 0.00 63 1026.0
20200406220205 8 0 0.0 0.0 0.00 0.00 0.00 63 1025.9
20200406215705 8 0 0.0 0.0 0.00 0.00 0.00 63 1025.9
20200406215205 8 0 0.0 0.0 0.00 0.00 0.00 63 1025.8
20200406214705 8 0 0.0 0.0 0.00 0.00 0.00 63 1025.8
20200406214205 8 0 0.0 0.0 0.00 0.00 0.00 63 1025.7
20200406213705 8 0 0.0 0.0 0.00 0.00 0.00 62 1025.7
20200406213205 8 0 0.0 0.0 0.00 0.00 0.00 61 1025.7
20200406212704 8 0 0.0 0.0 0.00 0.00 0.00 61 1025.7
20200406212205 8 0 0.0 0.0 0.00 0.00 0.00 60 1025.6
20200406211705 8 0 0.0 0.0 0.00 0.00 0.00 60 1025.6
20200406211205 9 0 0.0 0.0 0.00 0.00 0.00 59 1025.7
20200406210705 9 0 0.0 0.0 0.00 0.00 0.00 59 1025.6
20200406210205 9 0 0.0 0.0 0.00 0.00 0.00 58 1025.7
20200406205705 10 0 0.0 0.0 0.00 0.00 0.00 57 1025.7
20200406205204 10 346 0.0 0.0 0.00 0.00 0.00 57 1025.6
20200406204705 10 0 0.0 0.0 0.00 0.00 0.00 57 1025.6
20200406204205 10 0 0.0 0.0 0.00 0.00 0.00 55 1025.6
20200406203705 10 0 0.0 0.0 0.00 0.00 0.00 54 1025.6
20200406203205 10 0 0.0 0.0 0.00 0.00 0.00 54 1025.6
20200406202705 10 0 0.0 0.0 0.00 0.00 0.00 53 1025.6
20200406202205 10 0 0.0 0.0 0.00 0.00 0.00 52 1025.5
20200406201705 10 0 0.0 0.0 0.00 0.00 0.00 52 1025.4
20200406201205 11 0 0.0 0.0 0.00 0.00 0.00 52 1025.4
20200406200705 11 0 0.0 0.0 0.00 0.00 0.00 50 1025.4
20200406200205 11 0 0.0 0.0 0.00 0.00 0.00 49 1025.3
20200406195705 11 0 0.0 0.0 0.00 0.00 0.00 49 1025.3
20200406195205 11 0 0.0 0.0 0.00 0.00 0.00 50 1025.1
20200406194705 11 0 0.0 0.0 0.00 0.00 0.00 49 1025.1
20200406194205 12 0 0.0 0.0 0.00 0.00 0.00 49 1025.1
20200406193705 12 0 0.0 0.0 0.00 0.00 0.00 49 1025.0
20200406193205 12 0 0.0 0.0 0.00 0.00 0.00 48 1025.0
20200406192705 12 0 0.0 0.0 0.00 0.00 0.00 47 1024.9
20200406192204 13 0 0.0 0.0 0.00 0.00 0.00 47 1024.9
20200406191705 13 0 0.0 0.0 0.00 0.00 0.00 46 1024.9
20200406191205 13 0 0.0 0.0 0.00 0.00 0.00 43 1024.9
20200406190705 13 0 0.0 0.0 0.00 0.00 0.00 42 1024.8
20200406190205 14 0 0.0 0.0 0.00 0.00 0.00 42 1024.8
20200406185705 14 0 0.0 0.0 0.00 0.00 0.00 41 1024.7
20200406185205 14 0 0.0 0.0 0.00 0.00 0.00 39 1024.7
20200406184705 15 0 0.0 0.0 0.00 0.00 0.00 39 1024.6
20200406184205 15 0 0.0 0.0 0.00 0.00 0.00 38 1024.6
20200406183704 15 0 0.0 0.0 0.00 0.00 0.00 38 1024.5
20200406183205 16 0 0.0 0.0 0.00 0.00 0.00 37 1024.4
20200406182705 16 0 0.0 0.0 0.00 0.00 0.00 36 1024.4
20200406182205 16 0 0.0 0.0 0.00 0.00 0.00 35 1024.2
20200406181704 16 0 0.0 0.0 0.00 0.00 0.00 35 1024.1
20200406181205 16 0 0.0 0.0 0.00 0.00 0.00 34 1024.0
20200406180705 16 346 0.0 0.0 0.00 0.00 0.00 34 1024.0
20200406180205 17 0 0.0 0.0 0.00 0.00 0.00 33 1024.0
20200406175705 17 0 0.0 0.0 0.00 0.00 0.00 33 1023.9
20200406175205 17 0 0.0 0.0 0.00 0.00 0.00 33 1023.8
20200406174705 17 0 0.0 0.0 0.00 0.00 0.00 32 1023.8
20200406174205 17 0 0.0 0.0 0.00 0.00 0.00 31 1023.6
20200406173704 18 0 0.0 0.0 0.00 0.00 0.00 31 1023.5
20200406173205 18 346 0.0 0.0 0.00 0.00 0.00 30 1023.5
20200406172705 18 331 0.0 0.0 0.00 0.00 0.00 30 1023.5
20200406172205 18 0 0.0 0.0 0.00 0.00 0.00 30 1023.4
20200406171705 18 0 0.0 0.0 0.00 0.00 0.00 29 1023.4
20200406171204 18 313 0.0 0.0 0.00 0.00 0.00 29 1023.2
20200406170705 18 0 0.0 0.0 0.00 0.00 0.00 29 1023.2
20200406170205 19 0 0.0 0.0 0.00 0.00 0.00 29 1023.2
20200406165705 19 0 0.0 0.0 0.00 0.00 0.00 29 1023.2
20200406165205 19 0 0.0 0.0 0.00 0.00 0.00 28 1023.1
20200406164705 19 0 0.0 0.0 0.00 0.00 0.00 28 1023.1
20200406164205 19 0 0.0 0.0 0.00 0.00 0.00 28 1023.0
20200406163705 19 0 0.0 0.0 0.00 0.00 0.00 28 1023.0
20200406163205 19 351 0.0 0.0 0.00 0.00 0.00 28 1023.0
20200406162705 20 15 0.0 0.0 0.00 0.00 0.00 28 1022.9
20200406162205 20 50 0.0 0.0 0.00 0.00 0.00 28 1022.9
20200406161705 20 311 0.0 0.0 0.00 0.00 0.00 27 1022.9
20200406161205 20 355 0.0 0.0 0.00 0.00 0.00 28 1022.8
20200406160706 20 301 0.0 0.0 0.00 0.00 0.00 29 1022.7
20200406160205 20 46 0.0 0.0 0.00 0.00 0.00 29 1022.7
20200406155704 20 28 0.0 0.0 0.00 0.00 0.00 28 1022.7
20200406155205 20 9 0.0 0.0 0.00 0.00 0.00 29 1022.8
20200406154705 20 285 0.0 0.0 0.00 0.00 0.00 28 1022.7
20200406154205 20 11 0.0 0.0 0.00 0.00 0.00 29 1022.8
20200406153705 20 323 0.0 0.0 0.00 0.00 0.00 28 1022.8
20200406153205 20 327 0.0 0.0 0.00 0.00 0.00 28 1022.7
20200406152705 20 19 0.0 0.0 0.00 0.00 0.00 26 1022.7
20200406152205 20 17 0.0 0.0 0.00 0.00 0.00 25 1022.7
20200406151705 20 33 0.0 0.0 0.00 0.00 0.00 25 1022.7
20200406151205 20 5 0.0 0.0 0.00 0.00 0.00 25 1022.8
20200406150705 20 299 0.0 0.0 0.00 0.00 0.00 25 1022.9
20200406150205 20 80 0.0 0.0 0.00 0.00 0.00 26 1022.9
20200406145704 20 115 0.0 0.0 0.00 0.00 0.00 26 1022.9
20200406145206 20 355 0.0 0.0 0.00 0.00 0.00 26 1022.9
20200406144705 20 326 0.0 0.0 0.00 0.00 0.00 27 1022.9
20200406144205 20 336 0.0 0.0 0.00 0.00 0.00 28 1022.9
20200406143704 20 59 0.0 0.0 0.00 0.00 0.00 27 1022.9
20200406143205 20 0 0.0 0.0 0.00 0.00 0.00 26 1022.9
20200406142705 20 0 0.0 0.0 0.00 0.00 0.00 26 1022.9
20200406142205 20 313 0.0 0.0 0.00 0.00 0.00 27 1022.9
20200406141705 20 234 0.0 0.0 0.00 0.00 0.00 27 1022.9
20200406141205 20 18 0.0 0.0 0.00 0.00 0.00 29 1022.9
20200406140705 20 342 0.0 0.0 0.00 0.00 0.00 29 1022.9
20200406140205 20 24 0.0 1.6 0.00 0.00 0.00 29 1022.9
20200406135704 20 325 0.0 1.6 0.00 0.00 0.00 29 1022.9
20200406135204 19 355 0.0 0.0 0.00 0.00 0.00 30 1023.0
20200406134705 20 303 0.0 4.8 0.00 0.00 0.00 29 1023.1
20200406134205 20 329 0.0 4.8 0.00 0.00 0.00 30 1023.0
20200406133705 19 296 0.0 4.8 0.00 0.00 0.00 31 1023.0
20200406133206 19 0 0.0 1.6 0.00 0.00 0.00 31 1023.0
20200406132704 19 0 0.0 1.6 0.00 0.00 0.00 31 1023.0
20200406132205 19 0 0.0 1.6 0.00 0.00 0.00 32 1023.0
20200406131205 20 64 0.0 8.0 0.00 0.00 0.00 31 1023.0
20200406130706 20 191 0.0 8.0 0.00 0.00 0.00 33 1023.1
20200406125705 19 0 0.0 0.0 0.00 0.00 0.00 32 1023.2
20200406125204 19 304 0.0 1.6 0.00 0.00 0.00 33 1023.1
20200406124204 19 331 0.0 3.2 0.00 0.00 0.00 33 1023.2
20200406123705 18 85 0.0 4.8 0.00 0.00 0.00 34 1023.1
20200406122705 19 0 0.0 1.6 0.00 0.00 0.00 33 1023.2
20200406122205 18 213 0.0 1.6 0.00 0.00 0.00 33 1023.2
20200406121205 18 223 0.0 1.6 0.00 0.00 0.00 33 1023.2
20200406120705 18 233 0.0 0.0 0.00 0.00 0.00 33 1023.2
20200406115704 19 0 0.0 0.0 0.00 0.00 0.00 34 1023.2
20200406115205 18 0 0.0 0.0 0.00 0.00 0.00 33 1023.2
20200406114205 18 0 0.0 0.0 0.00 0.00 0.00 33 1023.2
20200406113705 18 0 0.0 0.0 0.00 0.00 0.00 34 1023.2
20200406112705 18 0 0.0 0.0 0.00 0.00 0.00 35 1023.1
20200406112205 17 223 0.0 0.0 0.00 0.00 0.00 33 1023.1
20200406111705 17 0 0.0 0.0 0.00 0.00 0.00 35 1023.2
20200406111204 17 244 0.0 0.0 0.00 0.00 0.00 36 1023.2
20200406110705 17 220 0.0 0.0 0.00 0.00 0.00 35 1023.2
20200406110205 17 233 0.0 0.0 0.00 0.00 0.00 36 1023.4
20200406105705 17 246 0.0 0.0 0.00 0.00 0.00 36 1023.4
20200406105205 17 296 0.0 0.0 0.00 0.00 0.00 40 1023.4
20200406104705 17 225 0.0 1.6 0.00 0.00 0.00 40 1023.5
20200406104205 17 263 0.0 1.6 0.00 0.00 0.00 40 1023.4
20200406103705 17 241 0.0 1.6 0.00 0.00 0.00 39 1023.4
20200406103205 16 190 0.0 1.6 0.00 0.00 0.00 41 1023.4
20200406102705 16 254 0.0 1.6 0.00 0.00 0.00 41 1023.4
20200406102205 16 177 0.0 0.0 0.00 0.00 0.00 42 1023.2
20200406101705 16 241 0.0 0.0 0.00 0.00 0.00 42 1023.4
20200406101205 16 258 0.0 0.0 0.00 0.00 0.00 42 1023.2
20200406100705 16 256 0.0 0.0 0.00 0.00 0.00 43 1023.2
20200406100205 16 232 0.0 0.0 0.00 0.00 0.00 43 1023.4
20200406095705 16 251 0.0 0.0 0.00 0.00 0.00 42 1023.4
20200406095205 16 238 0.0 0.0 0.00 0.00 0.00 43 1023.4
20200406094705 16 220 0.0 0.0 0.00 0.00 0.00 43 1023.4
20200406094205 16 0 0.0 0.0 0.00 0.00 0.00 43 1023.4
20200406093705 16 271 0.0 0.0 0.00 0.00 0.00 42 1023.4
20200406093204 16 263 0.0 0.0 0.00 0.00 0.00 43 1023.2
20200406092704 16 280 0.0 0.0 0.00 0.00 0.00 44 1023.2
20200406092205 16 274 0.0 1.6 0.00 0.00 0.00 45 1023.2
20200406091705 16 246 0.0 1.6 0.00 0.00 0.00 44 1023.4
20200406091205 16 238 0.0 1.6 0.00 0.00 0.00 44 1023.1
20200406090705 15 234 0.0 0.0 0.00 0.00 0.00 46 1023.1
20200406090205 15 232 0.0 0.0 0.00 0.00 0.00 46 1023.1
20200406085705 15 277 0.0 0.0 0.00 0.00 0.00 47 1023.1
20200406085205 15 265 0.0 0.0 0.00 0.00 0.00 48 1023.1
20200406084705 14 257 0.0 0.0 0.00 0.00 0.00 49 1023.1
20200406084205 14 254 0.0 0.0 0.00 0.00 0.00 50 1023.1
20200406083705 13 217 0.0 0.0 0.00 0.00 0.00 51 1023.1
20200406083205 13 246 0.0 0.0 0.00 0.00 0.00 51 1023.0
20200406082705 13 229 0.0 0.0 0.00 0.00 0.00 51 1023.1
20200406082205 13 232 0.0 0.0 0.00 0.00 0.00 52 1023.1
20200406081705 12 214 0.0 0.0 0.00 0.00 0.00 53 1023.1
20200406081205 12 234 0.0 0.0 0.00 0.00 0.00 52 1022.9
20200406080705 12 236 0.0 3.2 0.00 0.00 0.00 53 1022.9
20200406080205 12 225 0.0 4.8 0.00 0.00 0.00 53 1023.0
20200406075704 12 237 0.0 4.8 0.00 0.00 0.00 53 1022.9
20200406075205 12 205 0.0 0.0 0.00 0.00 0.00 53 1022.9
20200406074705 12 252 0.0 0.0 0.00 0.00 0.00 52 1022.8
20200406074205 11 256 0.0 0.0 0.00 0.00 0.00 53 1022.8
20200406073705 11 301 0.0 0.0 0.00 0.00 0.00 57 1022.7
20200406073205 10 255 0.0 0.0 0.00 0.00 0.00 60 1022.6
20200406072705 10 234 0.0 0.0 0.00 0.00 0.00 63 1022.6
20200406072205 10 209 0.0 0.0 0.00 0.00 0.00 63 1022.5
20200406071705 9 262 0.0 0.0 0.00 0.00 0.00 67 1022.5
20200406071205 8 252 0.0 0.0 0.00 0.00 0.00 69 1022.5
20200406070705 8 252 0.0 0.0 0.00 0.00 0.00 70 1022.4
20200406065704 7 248 0.0 0.0 0.00 0.00 0.00 72 1022.4
20200406065205 7 248 0.0 0.0 0.00 0.00 0.00 73 1022.3
20200406064705 7 248 0.0 0.0 0.00 0.00 0.00 74 1022.3
20200406064205 7 245 0.0 0.0 0.00 0.00 0.00 76 1022.2
20200406063705 6 245 0.0 0.0 0.00 0.00 0.00 76 1022.3
20200406063205 6 245 0.0 0.0 0.00 0.00 0.00 77 1022.2
20200406062704 6 245 0.0 0.0 0.00 0.00 0.00 77 1022.1
20200406062205 6 245 0.0 0.0 0.00 0.00 0.00 78 1022.0
20200406061705 5 245 0.0 0.0 0.00 0.00 0.00 78 1021.9
20200406061204 5 245 0.0 0.0 0.00 0.00 0.00 80 1021.7
20200406060705 5 219 0.0 0.0 0.00 0.00 0.00 80 1021.7
20200406060205 5 219 0.0 0.0 0.00 0.00 0.00 82 1021.6
20200406055705 4 0 0.0 0.0 0.00 0.00 0.00 83 1021.7
20200406055204 3 0 0.0 0.0 0.00 0.00 0.00 84 1021.6
20200406054705 3 0 0.0 0.0 0.00 0.00 0.00 85 1021.6
20200406054206 3 0 0.0 0.0 0.00 0.00 0.00 85 1021.6
20200406053705 3 0 0.0 0.0 0.00 0.00 0.00 86 1021.5
20200406053205 2 0 0.0 0.0 0.00 0.00 0.00 86 1021.5
20200406052705 2 0 0.0 0.0 0.00 0.00 0.00 87 1021.5
20200406052204 1 238 0.0 0.0 0.00 0.00 0.00 87 1021.4
20200406051704 1 249 0.0 0.0 0.00 0.00 0.00 87 1021.4
20200406051205 1 0 0.0 0.0 0.00 0.00 0.00 86 1021.2
20200406050704 1 0 0.0 0.0 0.00 0.00 0.00 86 1021.1
20200406050205 1 0 0.0 0.0 0.00 0.00 0.00 85 1021.1
20200406045704 1 248 0.0 0.0 0.00 0.00 0.00 85 1021.0
20200406045205 1 248 0.0 0.0 0.00 0.00 0.00 85 1020.9
20200406044705 1 249 0.0 0.0 0.00 0.00 0.00 85 1020.9
20200406044205 1 249 0.0 0.0 0.00 0.00 0.00 86 1020.8
20200406043705 1 249 0.0 0.0 0.00 0.00 0.00 85 1020.8
20200406043204 1 249 0.0 0.0 0.00 0.00 0.00 85 1020.7
20200406042705 1 248 0.0 0.0 0.00 0.00 0.00 85 1020.7